Location: ?????????
(38.4921°N, 22.9787°E)
Time: 01:04:09
(UTC+00:00)

Daily predictions for brighter satellites

Satellite Brightness Start Highest point End
(mag) Time Altitude Azimuth Time Altitude Azimuth Time Altitude Azimuth
CZ-3 Stage 3 4.4 01:27:11 49° SE 01:27:11 49° SE 01:46:08 10° E
CZ-3 R/B 4.0 01:45:41 58° SSW 01:47:12 59° SSW 01:58:15 10° ESE
Cosmos 2082 Rocket 4.1 02:07:34 25° ENE 02:07:34 25° ENE 02:10:50 10° NE
Cosmos 1980 Rocket 3.3 02:32:25 41° ENE 02:32:25 41° ENE 02:37:17 10° SE
Tiangong 1.4 02:55:00 12° E 02:55:00 12° E 02:55:18 10° E
SL-8 R/B 3.9 03:12:41 66° SE 03:12:41 66° SE 03:16:47 10° SE
Cosmos 1697 Rocket 4.3 03:17:16 20° SSW 03:17:16 20° SSW 03:19:12 10° S
Meteor 2-3 Rocket 4.5 03:20:06 10° S 03:25:39 53° E 03:31:11 10° NNE
Cosmos 489 Rocket 4.5 03:20:55 10° SSW 03:27:13 84° ESE 03:33:32 10° NNE
Nadezhda 4 Rocket 3.9 03:21:57 10° S 03:28:16 88° E 03:34:35 10° N
Cosmos 1726 Rocket 4.5 03:31:10 10° N 03:35:22 46° E 03:39:24 10° SSE
USA 59 Rocket 0.8 03:34:44 34° N 03:36:06 48° ENE 03:41:03 10° SE
COSMOS 2406 3.1 03:32:38 10° SSW 03:38:18 89° WNW 03:44:00 10° NNE
SL-24 R/B - RUBIN 2 3.4 03:38:33 62° WSW 03:38:40 63° WSW 03:43:02 10° SSE
CZ-4 R/B 3.7 03:34:36 10° NNE 03:39:15 86° E 03:43:51 10° SSW
Cosmos 841 Rocket 3.3 03:34:42 10° SSW 03:39:54 72° WNW 03:45:09 10° NNE
BREEZE-M DEB (TANK) 3.5 03:44:06 33° WNW 03:47:12 89° SSW 03:50:42 10° ESE
Cosmos 2082 Rocket 2.6 03:49:32 37° WNW 03:49:59 37° WNW 03:55:11 10° N
Cosmos 1892 Rocket 3.6 03:45:42 10° S 03:50:01 76° E 03:54:24 10° N
Cosmos 1933 3.1 03:52:07 50° NW 03:52:51 62° W 03:56:35 10° S
SL-16 R/B 3.4 03:47:34 10° N 03:52:54 41° ENE 03:58:12 10° SE
NOSS 2-1 (C) 3.7 03:58:58 26° NNW 04:01:07 71° ENE 04:06:16 10° SE
COSMOS 2455 2.8 03:58:09 19° NNW 04:02:33 75° WSW 04:08:32 10° SSE
IRS-1D 3.7 04:00:17 10° N 04:05:04 46° WNW 04:09:54 10° SW
Cosmos 1898 Rocket 3.5 04:02:27 17° NNW 04:06:24 63° WSW 04:11:35 10° S
Cosmos 1627 Rocket 4.4 04:09:01 10° SSW 04:15:07 75° W 04:21:15 10° N
Cosmos 1980 Rocket 3.2 04:14:14 22° WNW 04:15:44 25° WSW 04:20:11 10° SSW
Cosmos 2278 4.4 04:10:30 10° NNW 04:16:04 55° ENE 04:21:34 10° SE
COSMO-SKYMED 1 2.4 04:14:09 10° S 04:18:12 61° W 04:22:18 10° NNW
SWAS 4.2 04:15:30 17° NNW 04:18:29 72° WSW 04:22:29 10° SSE
Cosmos-2242 3.4 04:16:11 10° N 04:20:23 64° E 04:24:32 10° SSE
Cosmos 2369 4.1 04:16:16 16° NW 04:20:26 43° WSW 04:25:44 10° S
SKYMED 2 4.1 04:16:27 10° SSW 04:20:28 38° W 04:24:01 13° NNW
Delta 2 Rocket 3.9 04:21:31 19° WSW 04:23:01 28° SSW 04:25:39 10° SE
ATLAS 2AS CENTAUR R/B 4.3 04:17:40 10° S 04:24:08 39° ESE 04:30:28 10° NE
Meteor 2-2 Rocket 4.4 04:18:41 10° N 04:24:24 77° E 04:30:11 10° SSE
Meteor 2-20 Rocket 4.4 04:20:37 10° N 04:26:23 78° E 04:32:04 10° S
Cosmos 2058 Rocket 3.1 04:22:18 10° N 04:26:46 86° E 04:31:08 10° S
Tiangong -1.9 04:27:21 22° W 04:29:13 63° SSW 04:32:25 10° ESE
Cosmos 1484 Rocket 2.4 04:26:43 10° N 04:30:04 58° WNW 04:33:23 10° SSW
BREEZE-M DEB (TANK) 3.0 04:27:21 10° SW 04:30:10 56° SE 04:32:32 10° ENE
Cosmos 1937 Rocket 3.6 04:26:08 10° NNW 04:31:04 50° WSW 04:35:59 10° S
Cosmos 858 Rocket 4.4 04:25:58 10° NNW 04:31:09 74° WSW 04:36:18 10° S
Okean 1 3.1 04:31:47 10° N 04:35:22 82° E 04:38:53 10° S
ARIANE 5 R/B 4.0 04:31:05 10° NNE 04:36:01 42° E 04:40:55 10° S
Cosmos 2333 Rocket 2.4 04:36:01 10° NNW 04:41:49 77° ENE 04:47:32 10° SSE
IRIDIUM 114 4.4 04:38:46 10° S 04:43:59 90° W 04:49:14 10° N
Cosmos 2026 Rocket 4.3 04:39:12 10° SW 04:44:50 40° WNW 04:50:31 10° N
NOSS 3-1 (A) 4.5 04:39:10 10° NNW 04:46:40 70° NE 04:55:47 10° SE
Cosmos 2360 Rocket 2.8 04:43:00 10° NNW 04:48:34 58° ENE 04:54:04 10° SE
BREEZE M DEB (TANK) 1.9 04:46:45 10° WSW 04:48:54 44° NNW 04:52:28 10° NE
SMAP 3.2 04:44:19 10° NNE 04:49:00 82° ESE 04:53:39 10° S
Cosmos 1814 Rocket 4.0 04:45:47 10° SSW 04:50:57 69° WNW 04:56:14 10° NNE
SAR-Lupe-4 4.3 04:48:33 10° NNE 04:52:04 58° ESE 04:55:33 10° S
Helios 1A Rocket 3.8 04:50:11 10° SW 04:52:40 20° W 04:55:11 10° NW
IRIDIUM 103 4.3 04:47:57 10° S 04:53:09 73° W 04:58:23 10° N
Landsat 7 4.0 04:50:19 10° NNE 04:54:58 75° E 04:59:37 10° S
CBERS-1 4.1 04:50:56 10° N 04:55:54 54° WNW 05:00:50 10° SSW
Cosmos 1758 Rocket 3.5 04:56:10 10° SSW 05:00:35 67° W 05:04:59 10° N
IGS 5A 4.0 04:57:25 10° N 05:01:01 33° WNW 05:04:36 10° SW
IRS-1C 4.4 04:58:58 10° NNE 05:04:18 75° ESE 05:09:37 10° S
Meteor 2-6 Rocket 4.4 04:59:22 10° N 05:05:22 86° W 05:11:18 10° S
Cosmos 2219 Rocket 3.1 05:01:58 10° NNW 05:07:27 48° ENE 05:12:51 10° SE
